Wind_Speed
10 11 10 8 8 8 9 10 11 11 11 12 14 14 14 15 15 15 14 14 13 12 11 10 8 7 6 5 4 3 3 4 4 4 4 5 6 7 8 9 9 10 11 12 11 10 9 8 8 9 10 12 14 14 15 15 15 15 15 15 15 15 14 14 14 13 13 12 11 11 11 11 12 13 14 15 16 16 16 16 16 16 14 13 12
13 12 11 10 11 12 13 13 13 13 13 14 15 15 16 16 16 15 15 14 13 11 10 8 8 7 6 5 4 3 4 4 4 4 4 5 5 6 7 8 9 10 12 12 11 9 9 9 10 12 13 14 14 14 15 15 15 15 15 15 14 14 14 13 13 12 12 11 10 10 10 11 12 13 14 15 16 16 16 17 17 17 15 14 12
16 14 13 13 13 14 14 14 14 14 15 15 16 16 16 16 15 15 14 14 13 11 9 8 7 6 6 5 5 5 5 5 5 5 5 6 6 6 6 8 9 11 12 11 10 9 9 10 12 14 14 14 14 15 15 15 15 14 15 14 14 13 13 13 12 11 11 11 10 10 10 12 13 13 14 14 15 15 16 17 18 18 17 15 13
16 15 15 15 14 14 15 15 15 15 15 15 15 16 15 15 15 14 13 13 12 11 9 8 6 6 6 6 7 6 6 6 5 6 7 7 6 6 6 8 10 11 11 11 10 10 10 12 14 14 13 13 14 15 15 15 14 14 14 14 13 13 12 12 11 11 11 11 11 11 12 12 13 13 13 14 14 14 15 17 18 18 18 16 14
14 14 15 15 14 14 14 14 15 15 15 15 15 14 14 14 13 13 12 11 11 10 9 7 7 7 7 8 8 8 7 7 6 6 7 8 7 6 7 8 10 11 11 10 10 11 12 14 15 14 13 13 14 15 15 14 13 14 14 14 13 12 11 11 10 10 11 11 12 13 12 12 12 12 12 13 13 14 15 17 18 19 18 17 15
13 13 13 13 13 13 13 13 14 14 14 14 14 14 13 12 12 12 11 11 11 10 9 8 8 9 9 9 9 9 8 7 7 7 8 8 8 7 7 8 10 10 10 10 10 12 13 15 14 13 13 13 14 15 15 14 13 13 13 13 12 11 10 10 10 11 11 12 12 12 12 12 12 12 12 13 13 14 15 17 18 18 18 17 15
11 12 12 12 12 12 12 12 12 13 13 13 13 13 12 11 11 11 11 11 11 11 11 10 9 10 10 10 10 9 9 7 7 7 7 8 8 7 8 9 9 10 9 9 10 12 14 15 14 13 13 14 15 15 14 13 13 12 12 12 11 10 10 10 10 11 11 11 12 12 12 12 12 11 12 12 13 14 15 16 17 17 17 17 15
10 11 11 11 11 11 11 11 11 11 11 11 11 11 11 10 10 10 11 11 11 11 11 11 10 10 11 10 10 9 9 8 7 7 7 7 7 7 8 9 9 9 9 9 10 12 14 14 13 13 13 14 15 15 14 13 12 11 11 11 10 9 9 10 10 10 10 11 11 12 12 12 12 12 12 13 13 14 14 14 15 15 16 16 15
9 10 10 11 11 11 10 10 10 10 10 10 10 10 10 10 10 10 10 10 11 11 11 12 11 11 11 11 11 10 9 8 8 7 7 6 7 7 8 9 9 9 9 9 11 13 14 13 13 13 13 14 14 14 13 12 12 11 10 9 9 9 9 9 9 9 10 11 11 12 12 12 12 12 13 13 14 14 13 13 13 14 15 16 15
9 9 9 9 10 10 10 9 8 8 8 9 9 9 9 10 10 10 9 10 10 10 11 12 13 13 12 12 11 10 9 8 8 7 7 6 7 7 8 9 9 8 9 9 11 13 13 12 12 13 13 14 14 13 12 11 11 10 9 9 9 9 8 8 9 10 10 10 11 11 11 11 12 12 13 14 14 14 13 13 13 14 14 15 15
8 7 8 8 8 9 8 8 7 7 7 8 8 9 9 9 10 10 9 10 10 10 10 11 12 13 12 11 11 10 9 9 8 7 7 6 7 7 8 9 8 8 8 10 12 13 13 12 12 12 13 13 13 12 11 10 10 9 8 9 9 9 8 9 10 11 10 9 10 11 11 12 12 13 14 14 14 14 13 13 13 14 14 14 14
7 6 6 6 7 7 7 7 7 7 7 7 8 9 9 9 10 10 9 10 11 10 10 11 11 12 12 11 10 10 9 9 8 8 7 7 7 8 9 9 8 8 8 10 12 13 12 11 11 12 13 13 12 11 10 9 9 8 8 8 8 9 9 10 11 9 8 9 10 11 12 12 13 13 14 15 14 14 14 14 15 15 15 14 14
6 5 6 6 6 6 7 7 7 7 6 7 8 9 9 9 10 10 9 9 9 10 10 11 11 11 12 11 10 10 9 8 8 8 7 8 8 9 10 10 9 8 9 10 12 12 12 11 11 11 12 12 12 11 10 9 8 7 7 8 8 9 9 10 9 8 9 10 11 12 12 12 13 14 14 15 14 15 15 14 15 16 15 14 14
4 4 5 6 6 6 6 7 7 7 7 6 7 8 8 9 9 9 9 8 9 9 10 11 11 11 11 11 10 9 9 7 8 8 8 8 9 10 11 11 9 8 9 11 12 12 11 11 10 10 11 11 11 10 9 9 8 7 7 7 8 8 9 9 9 10 11 12 13 13 13 14 14 15 15 15 15 15 16 15 16 16 16 14 13
4 3 3 4 4 5 5 7 7 7 7 7 7 7 8 8 8 9 8 9 8 8 9 10 10 10 10 10 9 9 9 8 8 9 9 10 10 11 12 11 9 9 10 12 12 12 11 10 10 10 10 10 10 9 9 8 7 7 7 8 8 8 9 10 10 11 12 13 14 14 15 16 16 16 15 15 15 15 16 16 17 17 16 14 13
3 2 2 2 2 3 4 5 6 7 7 8 8 8 8 8 8 9 8 8 8 7 7 7 8 9 9 9 9 9 9 9 10 10 10 11 11 12 12 11 10 9 10 12 12 12 11 10 10 9 9 9 9 9 8 8 7 7 7 8 8 9 9 10 10 11 12 13 14 15 17 18 18 18 16 16 16 16 16 17 17 17 16 15 14
3 2 1 2 2 2 2 3 4 5 6 7 8 9 9 9 9 9 8 8 7 7 7 7 7 8 9 10 10 9 9 10 11 11 11 11 12 12 12 12 10 10 11 12 12 12 11 10 9 9 9 9 8 8 8 7 7 7 8 8 9 9 9 9 10 11 13 14 15 16 18 19 19 19 17 16 16 17 17 17 17 17 16 15 14
3 2 2 2 3 3 2 3 4 4 4 6 7 9 9 10 10 10 9 9 8 8 8 8 8 8 9 10 10 10 10 11 11 11 11 11 12 13 13 12 11 10 11 12 12 12 11 10 9 9 8 8 8 8 7 7 7 7 8 8 8 8 9 9 10 12 13 15 16 17 19 20 20 19 18 17 17 17 17 17 17 17 17 15 15
2 3 3 3 4 4 5 4 5 6 6 6 7 8 9 10 10 10 10 10 10 10 10 10 10 10 10 10 10 11 11 11 11 11 12 12 14 14 14 12 11 10 11 12 12 12 11 10 9 9 8 8 8 7 7 6 7 7 7 8 8 8 9 10 11 13 14 16 17 18 20 20 20 20 18 17 17 18 17 17 18 18 17 16 14
1 2 3 4 4 4 6 6 5 7 8 8 8 8 8 9 10 11 11 11 12 12 11 11 12 12 11 11 12 12 12 11 11 11 13 14 15 15 14 12 11 10 10 11 11 11 10 10 9 9 9 8 8 7 7 7 7 7 7 7 7 8 9 10 11 13 15 17 18 19 20 21 21 20 18 17 17 17 17 17 18 18 17 16 15
1 2 3 4 3 3 4 6 5 6 8 8 9 9 8 9 10 11 12 12 12 12 11 11 12 13 12 12 13 14 13 12 11 11 13 15 15 15 14 12 11 10 10 11 11 11 10 10 9 9 9 9 8 7 7 8 7 6 7 7 7 8 10 10 12 14 16 17 18 19 20 21 21 20 18 17 17 17 17 17 17 17 17 16 15
2 2 2 2 2 3 3 4 5 5 6 6 7 8 9 10 11 11 11 11 11 12 12 13 13 13 13 13 14 15 14 13 12 12 14 15 16 15 14 12 10 10 10 11 11 11 10 9 9 9 9 9 8 8 8 8 7 5 6 6 7 9 9 10 12 14 15 16 18 19 20 21 21 20 18 17 17 16 16 16 16 17 17 17 16
3 3 3 2 2 2 1 2 4 5 6 5 6 7 8 10 11 11 11 11 12 12 13 13 13 14 14 14 15 16 16 15 14 14 15 15 16 15 13 11 10 9 10 10 10 10 10 9 9 9 9 9 8 7 8 8 7 5 4 6 7 7 8 10 11 12 14 16 17 19 20 21 21 20 18 17 16 16 16 16 17 17 18 17 16
4 4 3 3 3 2 1 1 3 4 4 5 6 6 6 8 11 11 11 11 12 13 13 13 14 14 14 14 15 17 17 17 16 16 15 16 16 16 14 11 10 9 9 10 10 10 10 9 9 9 9 9 9 8 7 7 6 4 4 5 6 7 8 10 11 12 14 15 16 18 19 20 20 19 18 17 16 16 17 17 17 18 18 17 16
5 5 4 4 3 3 1 1 2 2 3 4 5 5 6 8 10 10 11 12 13 13 13 13 14 14 14 14 15 16 16 17 18 17 16 17 17 16 14 11 10 9 9 9 10 10 9 9 8 9 9 9 10 9 8 6 4 3 4 5 6 6 7 8 10 12 13 14 15 16 17 18 18 18 18 17 16 16 16 17 17 17 18 18 17
5 5 5 5 4 3 2 1 1 2 3 3 4 4 5 7 8 9 10 13 13 13 13 13 14 15 16 16 16 14 14 16 17 16 16 17 17 16 14 11 10 9 9 9 9 9 9 9 8 9 9 8 8 8 8 6 4 3 3 4 6 6 6 7 9 10 11 13 13 13 16 17 17 17 18 17 16 15 16 16 16 17 18 18 17
5 5 5 6 5 4 3 3 1 2 2 3 3 5 6 7 8 9 10 12 13 13 13 13 14 15 16 17 16 14 13 14 15 15 15 16 17 16 14 11 10 9 9 9 9 9 10 10 9 8 9 8 7 6 6 5 3 2 2 3 4 5 6 7 8 9 10 11 11 12 15 16 16 16 17 17 15 15 15 16 16 17 18 19 18
6 6 6 6 6 5 4 3 2 1 2 2 3 5 7 8 8 8 10 12 13 13 13 13 13 14 15 15 14 14 13 12 14 15 16 17 19 17 14 11 10 9 9 9 9 9 9 10 9 7 7 7 6 6 6 4 1 1 2 3 3 4 5 6 7 8 9 10 11 13 14 15 15 15 16 16 15 14 15 15 16 17 18 18 18
7 7 7 6 6 6 5 3 3 2 1 2 2 3 5 7 7 8 9 12 13 13 12 12 13 14 13 12 11 11 11 12 15 16 17 19 20 17 14 11 10 9 9 9 8 8 9 9 9 8 9 8 7 6 5 3 0 1 1 2 2 3 5 5 7 8 9 10 12 13 14 14 14 15 15 15 15 14 14 15 15 16 18 18 18
6 6 6 5 4 5 4 3 2 2 2 1 2 2 4 6 7 8 9 12 12 12 12 11 12 12 11 11 10 11 12 14 17 17 17 20 19 16 14 12 11 10 9 8 8 8 8 8 9 9 9 8 7 5 4 3 0 1 1 2 3 3 4 5 7 8 9 11 12 13 13 12 13 14 14 14 14 14 13 14 15 16 17 18 18
7 6 6 5 5 4 4 2 1 1 1 1 1 2 4 6 7 8 9 11 11 11 11 10 10 11 11 11 12 13 15 17 17 16 18 21 18 15 14 12 11 10 9 8 7 7 7 7 9 9 9 7 6 5 3 2 1 2 2 3 4 5 4 6 7 8 10 12 12 13 12 12 13 13 13 14 13 13 13 14 15 16 17 18 18
7 6 6 6 5 5 4 3 2 1 1 0 1 3 5 6 8 9 9 10 11 11 10 9 10 11 12 12 13 15 16 18 17 17 20 20 17 15 14 13 12 10 9 8 7 7 7 7 8 10 10 7 6 4 3 2 3 3 2 3 5 5 6 7 8 9 11 12 11 12 12 12 13 13 13 14 13 12 12 13 14 15 17 18 19
6 6 6 6 6 5 5 4 3 2 2 2 3 5 6 8 9 9 9 10 11 10 9 10 11 13 14 13 13 16 17 18 18 19 20 19 16 15 14 12 12 11 10 8 7 6 7 7 7 9 10 8 7 5 4 3 4 3 3 5 5 6 8 9 9 9 11 11 11 11 11 12 12 13 13 13 13 11 11 12 13 15 17 18 19
7 7 7 6 6 6 5 5 5 3 3 4 5 7 8 9 10 9 9 10 10 10 10 11 12 15 16 12 13 16 18 19 20 20 18 17 15 15 14 13 12 11 10 9 7 6 7 6 6 6 6 7 8 7 6 5 3 3 4 6 5 6 8 10 9 10 11 11 12 11 11 12 12 13 13 13 12 11 10 11 13 15 16 18 19
7 7 7 6 6 6 6 6 6 5 3 4 6 7 9 10 10 9 9 10 11 10 11 12 14 17 16 12 15 18 20 21 21 19 17 15 14 14 14 13 12 11 10 9 7 7 7 7 6 4 4 4 5 6 6 5 3 3 4 5 5 6 8 10 9 9 11 11 12 11 11 12 12 14 14 13 12 10 9 11 12 14 16 18 19
7 7 7 7 7 7 6 6 7 6 4 4 6 8 9 11 11 10 10 12 12 12 12 14 16 17 15 13 17 20 22 23 21 18 16 15 13 12 12 12 12 11 10 9 8 8 8 7 5 4 4 3 2 2 3 2 2 3 3 4 5 6 7 9 9 10 11 11 12 11 10 11 12 13 13 12 12 10 9 10 12 14 15 17 19
6 6 7 7 7 7 6 6 7 6 4 5 7 9 10 11 12 11 11 12 13 13 13 14 15 15 14 16 20 22 22 22 19 17 15 14 13 11 11 11 11 10 10 9 8 7 7 6 4 4 4 3 2 1 0 1 1 2 2 4 5 6 7 9 10 10 10 10 12 11 11 11 11 12 12 12 11 10 10 10 11 13 13 16 18
6 6 7 7 7 7 7 7 7 6 5 6 8 10 11 12 13 12 12 13 13 14 14 14 15 15 17 19 21 22 21 19 17 15 13 12 11 10 10 9 9 10 9 8 7 6 5 4 4 4 4 3 2 1 1 1 1 2 3 4 5 6 8 10 11 9 9 9 9 10 11 10 10 11 11 11 10 9 9 9 10 12 12 15 17
5 6 6 7 7 7 7 7 7 7 6 7 9 10 12 14 14 13 13 14 14 16 17 18 19 19 20 21 21 20 19 17 15 13 12 11 10 9 9 8 8 8 8 7 7 7 6 5 4 3 3 3 1 1 1 1 0 2 2 3 5 6 7 9 9 8 9 9 7 9 11 10 10 9 10 11 10 8 8 8 9 11 12 14 15
5 5 6 7 7 7 8 7 7 7 6 7 9 11 13 14 15 15 15 16 17 17 19 20 21 21 21 20 19 18 16 14 13 11 10 9 8 7 7 7 6 6 6 5 5 5 5 5 4 3 3 2 1 1 1 1 0 0 2 3 3 5 6 7 8 7 8 9 8 10 11 10 10 9 10 11 9 6 7 7 9 11 11 13 14
4 5 5 6 7 7 8 8 8 8 7 7 10 13 14 15 14 15 16 18 19 19 19 19 19 20 20 19 18 16 15 13 11 10 9 8 7 6 6 5 5 4 4 4 3 3 4 4 3 3 3 2 1 2 1 1 1 1 2 2 1 3 5 6 7 6 6 6 8 9 9 8 10 9 9 10 7 6 7 7 9 11 11 11 12
3 5 4 5 7 7 8 9 10 11 9 9 11 14 14 15 15 15 16 18 19 19 20 20 19 18 18 17 16 14 13 11 10 9 8 7 6 6 5 4 4 3 3 3 3 2 3 2 3 3 3 3 3 3 3 2 2 1 1 1 2 2 3 3 5 5 4 5 7 7 6 7 8 9 10 9 6 6 7 7 9 10 10 10 11
2 4 4 4 6 8 8 9 10 12 11 10 12 14 15 15 15 15 15 16 17 18 18 18 17 16 15 14 13 12 11 10 8 7 7 6 5 5 4 3 3 3 3 3 3 3 2 2 3 3 3 3 4 4 4 3 3 2 2 3 2 2 4 3 4 5 4 6 7 6 7 8 9 10 11 9 5 6 7 8 8 9 9 9 10
1 4 4 4 6 7 9 9 9 11 12 12 12 14 15 15 15 16 15 14 15 15 15 14 14 13 13 12 11 10 9 8 7 6 5 5 4 4 3 3 2 2 2 3 2 2 3 3 3 4 4 4 5 5 5 4 4 2 1 3 3 2 5 4 3 4 6 8 8 8 8 8 9 11 10 8 7 6 8 8 8 9 9 8 10
1 4 5 5 5 7 9 10 10 10 11 11 11 11 13 13 14 14 13 12 13 13 12 12 11 11 11 10 9 8 7 7 6 5 4 4 4 3 3 3 3 2 2 2 2 2 3 3 3 3 3 4 5 6 5 4 5 4 2 4 4 3 4 4 2 4 6 7 8 9 8 6 7 9 9 9 9 8 8 8 9 9 9 8 9
2 4 6 6 6 7 9 10 10 10 10 11 10 10 10 11 12 12 11 11 10 10 9 9 10 9 9 8 8 7 6 6 5 4 4 4 4 4 3 3 4 3 2 2 3 4 3 3 2 3 3 3 4 6 6 5 6 5 5 6 5 4 5 4 4 5 6 5 5 8 9 8 7 8 8 9 9 9 8 7 7 9 9 8 9
4 4 6 7 7 8 9 10 11 10 10 10 10 9 9 9 9 10 9 9 8 8 7 7 8 7 7 7 7 7 6 6 5 4 4 4 5 5 4 4 4 4 4 3 3 3 3 2 2 2 4 3 3 4 6 6 6 6 6 6 5 6 7 6 4 5 5 5 6 7 8 9 9 8 7 6 8 10 10 7 6 8 7 7 8
5 5 7 8 8 8 9 10 11 11 10 10 10 10 9 9 8 8 8 8 7 6 6 6 6 5 5 5 6 6 6 6 6 5 4 5 5 5 5 5 5 4 4 4 4 3 3 3 3 3 4 4 3 3 4 4 5 6 7 6 6 7 7 6 5 5 6 6 7 6 5 8 9 7 5 5 7 11 11 7 5 6 6 6 7
7 7 8 9 10 10 10 10 10 11 11 11 11 10 10 8 8 7 7 7 6 5 5 5 5 4 3 3 4 5 6 6 6 6 6 6 5 6 6 6 6 5 4 4 4 4 4 4 3 3 3 4 4 4 4 3 4 6 6 5 6 7 7 6 5 5 5 6 7 6 6 7 6 5 5 7 8 11 11 8 6 6 5 5 6
9 9 9 10 11 12 11 11 10 11 11 11 11 11 10 9 8 8 7 6 6 5 5 4 4 3 3 3 4 5 5 5 6 6 6 7 6 6 6 6 6 5 4 5 4 5 5 4 3 2 2 3 4 4 4 4 5 6 5 4 5 5 5 5 5 4 3 4 6 5 7 5 4 5 7 8 10 12 12 8 6 6 4 3 4
11 11 10 11 13 13 13 12 11 11 12 11 11 11 11 10 9 7 6 6 5 5 5 4 4 3 3 3 3 4 5 6 6 6 7 7 7 7 7 7 6 5 5 5 5 5 5 4 3 3 2 3 3 3 3 3 4 4 4 4 4 2 4 5 5 4 3 6 6 3 6 6 5 6 8 9 11 12 12 10 7 6 4 3 5
Wind_Direction
165 160 162 168 164 154 147 143 141 140 138 139 142 146 145 142 144 147 146 146 147 150 148 147 148 144 139 137 137 140 142 143 151 150 135 127 124 122 118 115 115 117 119 117 114 111 108 101 96 95 99 103 105 104 103 104 105 103 98 92 88 85 83 81 78 75 71 66 60 53 48 42 36 33 32 31 30 29 26 22 17 12 6 359 353
131 137 142 141 140 138 136 135 133 131 129 132 138 140 137 137 141 145 146 145 145 146 142 143 147 142 139 139 135 134 139 144 144 135 123 119 114 111 110 110 114 119 119 117 114 109 102 95 96 102 107 108 107 105 106 108 107 102 95 90 87 82 78 75 71 66 61 55 50 45 41 38 33 30 29 30 29 28 27 24 19 15 11 4 358
116 123 127 124 126 130 131 129 125 124 124 130 135 135 134 137 143 146 144 141 141 138 137 143 145 139 141 144 141 144 145 142 140 136 127 117 110 107 109 112 117 121 120 116 112 104 97 97 104 109 111 110 109 110 111 110 106 100 93 88 84 81 77 71 66 61 52 46 43 37 34 32 28 25 25 27 27 27 28 25 22 20 16 11 6
114 118 120 117 119 124 127 126 124 125 127 131 135 135 137 141 144 144 141 138 138 138 140 145 147 146 150 152 150 151 148 144 145 144 133 123 118 117 120 124 127 128 124 117 109 102 102 108 112 114 114 113 112 113 113 110 104 98 91 87 84 80 76 69 62 55 46 41 37 33 30 29 25 21 22 25 25 26 28 28 25 24 22 18 13
115 116 117 118 121 123 126 128 130 132 134 136 136 137 139 142 144 142 140 141 143 145 147 150 156 158 158 154 149 149 148 146 148 146 137 130 126 126 131 133 134 131 124 117 109 106 112 117 118 118 117 115 115 114 112 107 101 96 91 88 86 80 73 65 57 49 41 35 31 30 29 27 22 18 21 24 24 25 28 29 28 27 26 24 19
118 117 119 122 124 124 128 132 135 137 138 138 138 138 138 142 145 143 143 148 152 150 149 155 165 164 157 151 148 147 145 143 150 149 139 131 128 133 140 140 137 130 122 114 109 112 119 122 122 120 118 117 116 114 110 106 101 96 92 90 86 80 70 60 51 43 36 30 28 28 27 25 21 17 22 24 24 26 29 31 30 29 29 27 25
121 122 124 128 129 128 130 133 136 139 141 142 142 141 142 144 144 144 147 151 151 150 152 157 164 160 151 149 149 144 141 145 155 148 135 129 131 139 143 141 138 128 117 110 110 118 123 125 123 122 120 119 116 114 111 107 102 96 92 90 85 77 67 57 49 41 34 29 27 28 27 24 22 21 25 28 27 28 30 32 30 29 30 29 27
123 128 131 136 136 134 133 136 140 143 146 147 146 145 148 148 147 149 151 152 149 150 153 151 152 150 148 150 148 141 141 148 148 137 131 131 135 143 143 141 136 126 116 109 114 124 127 126 124 123 121 119 116 114 112 109 103 97 92 89 83 74 63 56 51 44 36 32 30 29 28 23 23 25 27 29 29 30 32 32 29 28 30 31 30
128 133 138 141 140 140 140 143 145 147 151 150 151 153 154 153 153 153 152 153 149 150 148 143 144 147 150 151 146 141 143 147 139 132 136 141 143 147 144 141 137 128 119 116 121 128 129 127 124 122 121 118 116 114 113 110 104 97 93 87 79 69 57 54 52 45 39 35 34 32 28 23 23 26 27 29 30 32 33 31 28 26 29 32 31
132 136 139 142 144 148 150 150 149 150 154 157 161 163 161 159 157 155 154 151 148 150 146 142 146 149 151 148 144 141 140 142 141 141 147 150 148 147 146 143 140 131 124 124 128 131 131 128 124 122 120 118 116 115 114 110 104 98 92 85 76 64 52 48 46 43 39 36 37 35 30 25 24 27 28 29 32 34 33 30 27 26 28 30 28
131 137 142 147 152 156 160 160 158 160 164 164 165 167 168 165 162 161 159 154 151 155 149 141 144 146 144 141 140 141 141 144 146 150 153 156 154 151 150 149 145 136 127 127 132 134 132 128 125 123 121 118 118 117 115 110 103 96 89 82 72 62 51 40 38 38 36 34 37 36 30 26 24 27 28 30 34 35 33 29 27 28 26 28 26
133 141 149 155 162 166 170 172 171 169 171 170 165 167 171 171 167 165 165 161 155 155 147 139 140 141 137 139 145 147 148 149 148 152 160 164 163 158 155 153 150 141 131 132 136 135 133 128 125 123 122 122 122 121 118 111 102 93 84 75 65 60 53 42 38 31 29 32 33 31 27 24 25 28 27 29 35 35 34 29 28 30 27 26 25
130 143 158 166 174 176 177 180 183 180 175 174 169 167 171 174 172 168 167 166 160 154 146 140 142 144 142 144 153 152 148 150 151 154 166 171 168 164 160 158 155 147 138 138 139 137 133 127 123 124 126 127 127 125 120 112 103 94 81 69 59 56 51 45 35 14 19 29 27 26 21 21 27 29 27 29 34 36 34 29 28 31 29 25 23
125 143 163 172 178 180 182 186 192 193 186 181 176 173 172 172 173 172 168 167 168 162 153 148 145 148 149 147 149 149 145 151 157 161 171 174 173 170 165 161 157 150 143 141 140 137 133 125 123 127 131 133 130 126 121 113 105 94 80 67 58 53 47 41 26 2 14 25 22 21 17 20 28 30 28 28 33 36 35 31 28 31 31 27 23
130 143 157 165 173 179 187 193 200 202 195 190 189 186 184 180 176 179 177 170 172 170 160 154 149 149 150 147 146 147 147 157 165 169 176 177 175 173 167 162 158 152 146 142 141 138 131 125 126 133 137 137 133 128 122 115 107 95 81 70 61 53 41 34 17 1 14 22 18 17 16 19 26 29 29 27 30 34 35 33 29 29 30 27 26
130 129 130 146 161 180 190 197 202 204 199 196 198 201 200 197 189 188 186 175 172 174 166 160 156 153 152 153 154 153 157 167 172 174 180 179 176 172 169 163 159 154 147 143 142 138 132 129 133 139 143 141 136 130 123 118 109 95 83 73 64 51 38 28 12 4 16 20 16 15 15 18 22 26 28 26 28 32 33 33 30 28 27 26 26
118 115 129 159 176 199 214 213 210 206 200 197 201 205 207 208 204 197 193 184 178 178 175 172 166 163 164 163 162 161 168 175 175 177 181 181 178 173 171 166 160 153 146 145 144 139 134 134 138 142 145 144 137 131 124 119 108 94 83 74 65 52 36 24 11 7 17 19 15 14 14 16 19 22 25 25 27 30 32 32 31 28 26 25 24
123 138 161 179 189 205 230 234 236 235 217 206 204 205 205 208 210 204 198 189 184 184 181 177 173 176 177 171 166 170 179 181 177 179 182 184 182 176 172 168 159 151 148 148 145 139 137 138 138 140 144 144 138 132 126 117 105 89 81 75 64 48 33 22 12 11 17 16 13 12 12 14 17 20 23 24 26 29 30 30 30 29 25 26 26
143 158 177 187 197 221 235 237 245 252 245 228 216 209 204 203 205 204 201 194 190 190 184 176 174 182 185 176 172 179 186 184 180 180 183 188 186 178 172 168 158 151 150 149 146 142 140 139 136 139 146 145 138 132 123 110 96 84 78 71 57 42 32 23 14 13 16 15 12 10 10 11 14 18 22 23 25 27 28 28 28 26 24 25 28
136 149 175 181 191 220 225 225 231 239 239 236 228 221 212 208 205 201 199 197 196 195 190 181 176 184 188 180 178 184 188 185 181 183 186 189 187 179 171 165 158 151 151 149 146 143 139 138 135 141 147 144 137 130 120 107 97 88 77 65 52 40 32 24 15 14 15 12 10 7 7 8 10 14 20 23 25 28 28 29 26 23 22 22 25
88 116 153 165 186 204 205 210 212 218 222 229 231 225 217 216 215 207 201 199 199 198 196 191 186 189 190 186 184 186 187 183 181 187 191 190 186 178 169 164 158 151 151 149 148 145 141 138 137 143 145 139 133 125 114 104 96 87 80 66 49 40 33 24 16 14 13 10 6 4 5 5 7 11 17 22 25 28 30 30 27 23 22 22 23
53 86 117 132 174 189 190 201 197 207 211 214 222 220 216 218 220 214 206 200 199 200 200 197 195 195 195 193 190 190 188 180 179 190 195 191 184 174 166 162 155 150 152 150 149 145 140 138 140 145 140 134 130 124 116 109 100 86 77 66 50 43 35 24 18 14 10 7 4 2 2 1 4 10 15 21 24 28 31 30 28 25 23 22 22
29 54 81 101 122 148 168 194 189 201 207 206 208 211 215 218 220 216 209 202 198 199 201 200 199 198 200 198 193 194 191 180 177 187 194 191 181 169 162 159 152 151 153 151 148 143 138 137 141 142 135 129 125 122 118 113 111 100 76 64 57 47 34 25 18 13 8 5 2 0 359 359 3 8 13 20 25 28 31 30 29 26 23 21 22
19 29 47 80 91 89 101 186 197 202 206 208 206 203 207 216 219 214 209 205 200 199 200 201 202 200 201 201 199 200 195 184 178 183 189 189 178 165 160 156 151 152 153 152 149 143 139 140 142 138 135 131 128 124 119 118 120 110 73 59 56 46 35 26 17 12 9 5 3 359 355 357 0 4 12 19 25 28 30 30 28 25 21 21 22
15 16 19 37 57 58 67 181 213 219 217 211 205 197 199 213 218 212 208 207 204 201 200 202 203 202 202 203 203 203 199 190 181 179 186 188 176 162 156 154 153 153 151 151 148 141 138 140 138 135 137 138 137 135 132 132 123 92 56 45 43 40 34 26 17 12 9 5 3 358 353 355 358 2 10 18 26 30 31 31 29 25 21 21 22
14 14 8 7 23 28 9 324 258 250 233 212 199 188 192 207 211 210 209 207 206 204 202 203 203 203 205 203 201 199 197 193 181 174 186 188 171 155 152 155 154 150 149 148 145 141 138 136 135 136 141 144 143 137 133 134 122 94 59 39 34 30 24 19 14 8 5 1 359 356 351 353 356 0 8 15 25 31 32 34 32 27 23 22 22
20 23 9 357 6 15 5 347 326 276 250 219 191 177 185 197 202 205 203 200 203 204 201 203 204 204 205 203 202 200 196 191 176 173 187 179 159 151 153 157 152 146 147 145 144 143 138 134 137 143 145 146 140 130 129 135 134 109 62 35 30 18 13 11 5 359 356 353 352 351 352 355 356 359 5 12 24 31 33 36 34 30 26 24 23
23 27 15 2 359 6 11 351 330 295 254 237 200 179 180 186 194 199 193 191 196 198 198 201 204 203 203 204 206 206 199 187 174 178 184 167 152 152 155 154 145 141 144 145 148 145 137 134 138 141 138 139 135 130 138 142 129 74 36 13 11 2 3 2 354 351 348 346 347 350 355 357 356 358 3 10 23 30 33 37 36 32 29 27 26
23 20 14 12 0 0 11 358 333 317 274 252 223 188 176 178 188 188 177 178 184 186 189 198 200 198 202 205 206 206 196 180 176 182 177 159 152 153 153 147 137 138 145 148 153 148 142 140 140 141 141 151 153 146 147 144 84 354 15 354 341 344 355 348 341 343 342 344 347 353 360 358 355 359 2 10 23 31 33 38 38 33 30 30 30
33 24 10 12 11 8 11 4 336 311 305 266 218 186 177 176 178 174 165 169 175 176 182 193 194 192 195 198 196 193 185 175 176 180 169 155 153 153 148 140 135 140 147 152 157 153 152 149 145 148 155 163 158 149 150 143 190 309 329 320 307 329 347 331 328 335 339 346 350 356 360 358 358 1 3 10 23 32 34 39 40 35 31 31 32
26 29 15 8 15 18 14 16 17 316 314 284 203 166 175 172 162 159 160 165 169 172 175 180 181 180 182 184 183 180 176 171 173 175 162 153 153 150 143 138 138 141 147 155 161 162 165 160 151 152 164 167 152 157 169 154 203 256 286 306 307 323 331 319 322 334 343 349 352 356 358 359 4 5 6 11 22 33 38 41 41 37 33 33 34
21 23 19 14 16 20 19 26 43 81 93 128 129 141 162 159 153 153 157 161 163 164 166 168 169 169 169 173 175 172 172 168 167 167 157 152 150 145 142 139 139 143 148 157 163 170 177 175 163 156 165 167 154 173 186 186 239 257 295 302 302 311 315 317 325 337 347 349 350 357 356 358 6 7 8 12 20 32 41 45 44 39 34 35 37
30 24 20 23 23 22 23 32 52 84 109 116 124 142 152 151 152 153 156 158 156 156 160 164 166 163 158 164 174 171 168 162 159 160 153 148 147 144 143 138 136 142 147 156 163 176 189 195 186 166 163 159 154 175 189 205 249 283 303 298 306 319 316 317 328 342 348 347 354 3 0 359 5 7 7 11 19 32 43 49 48 43 36 36 40
35 30 24 29 28 22 18 31 52 70 99 117 131 148 151 151 155 154 153 151 147 149 158 165 165 161 154 161 177 170 160 154 152 155 151 147 147 143 140 134 135 142 145 151 162 181 198 212 210 189 174 161 157 172 188 203 236 283 297 304 316 321 313 315 330 347 349 351 3 9 3 1 4 5 4 10 21 30 44 52 52 48 41 38 41
34 36 28 32 36 30 20 29 48 59 87 117 137 150 150 150 154 150 145 142 141 144 151 155 157 159 155 161 171 161 149 147 149 154 152 150 150 143 139 137 138 141 141 149 165 182 194 210 223 225 217 192 176 177 184 193 207 241 278 304 316 320 316 319 335 350 349 354 7 8 3 5 7 5 1 8 21 27 39 52 55 53 47 42 41
36 40 35 32 37 38 29 33 48 57 78 112 134 144 143 143 145 145 144 141 141 142 142 144 150 155 154 155 156 149 143 144 149 155 154 152 150 142 140 139 138 138 143 153 168 178 185 202 224 243 247 247 237 201 180 200 225 245 287 313 318 324 323 326 343 358 355 358 10 12 16 18 12 5 1 8 17 21 34 49 56 55 52 49 45
41 45 45 39 40 43 38 42 56 63 76 110 131 136 134 135 138 142 141 136 137 137 135 140 147 149 147 149 148 144 142 144 151 156 154 152 148 143 143 141 140 141 146 154 162 171 181 198 219 240 254 268 281 274 224 274 331 353 351 338 326 327 332 340 356 6 1 3 11 17 28 26 13 7 5 8 10 18 34 43 53 54 52 53 49
46 47 53 50 47 52 48 49 64 70 83 113 125 127 128 129 132 136 134 130 131 131 130 135 143 145 145 147 145 141 142 146 153 156 153 152 148 146 147 146 146 143 146 152 154 163 180 203 223 240 259 273 275 279 292 237 340 15 8 344 333 339 350 352 359 9 6 3 4 9 21 20 10 10 10 6 6 20 37 41 50 53 50 53 51
49 49 57 60 56 62 61 58 69 76 90 116 120 120 125 127 126 126 127 128 127 126 128 133 139 143 144 143 140 140 144 150 154 152 148 147 145 147 149 149 149 144 148 156 157 166 180 203 221 229 246 257 254 260 280 248 16 12 11 358 339 349 4 354 349 358 360 352 347 0 13 8 1 16 23 12 7 21 37 45 55 55 51 52 51
55 59 61 67 67 70 74 74 79 85 94 113 118 118 123 127 124 122 126 129 127 126 128 132 136 139 138 138 140 143 148 150 148 145 141 139 140 142 145 146 146 144 149 159 167 175 184 199 209 209 216 233 227 197 258 284 83 351 32 37 345 351 17 1 344 346 347 340 341 2 12 2 358 20 26 12 10 24 35 46 57 60 55 52 49
62 71 69 75 80 82 85 88 95 102 105 111 116 118 122 126 124 122 126 128 129 131 132 134 136 137 138 141 144 147 148 146 140 134 131 132 135 136 138 139 139 144 149 161 178 188 191 190 191 198 195 180 155 155 188 199 158 165 59 68 273 5 24 6 355 355 349 343 349 4 13 5 3 19 20 13 27 42 39 43 52 60 59 54 48
73 82 79 85 92 96 97 99 104 110 115 117 118 119 121 123 124 124 125 127 130 133 133 136 139 140 141 143 144 144 143 141 137 129 123 123 127 133 139 140 146 152 153 163 182 199 197 189 180 189 187 161 148 160 176 154 133 143 106 155 201 54 42 18 17 18 1 357 2 7 15 14 10 20 21 15 38 62 51 44 50 59 60 56 51
86 97 95 97 104 107 108 106 108 113 118 123 124 124 122 123 127 128 129 129 129 129 129 132 136 138 137 137 136 136 134 133 132 126 122 123 129 137 142 145 156 160 163 172 186 199 199 188 180 183 184 163 149 155 160 148 148 177 155 137 138 50 58 54 38 36 20 6 13 13 8 8 3 8 12 5 25 62 42 36 57 65 63 62 55
121 117 114 115 117 119 118 115 114 116 119 125 128 125 123 123 125 127 129 127 123 121 122 124 128 128 126 126 125 124 123 122 122 122 124 126 131 137 139 143 148 155 173 182 184 196 197 185 180 183 179 167 156 149 151 155 150 159 152 109 106 67 68 66 31 35 32 16 11 3 353 356 356 4 14 11 19 33 18 35 75 74 64 64 55
186 139 132 133 133 132 130 126 124 123 121 123 125 121 118 118 117 117 119 116 112 114 117 119 120 118 116 115 115 115 116 117 121 127 130 131 130 128 136 136 131 139 159 175 179 190 194 186 177 177 170 166 161 146 143 145 126 128 118 93 98 102 98 101 80 53 43 25 7 1 4 7 1 9 25 26 22 21 14 35 75 75 66 65 55
212 168 148 147 147 146 142 137 133 130 127 124 124 121 116 114 113 113 113 111 110 113 116 118 117 116 116 115 116 117 116 118 121 127 131 133 127 123 129 126 120 128 139 159 177 185 188 178 166 157 139 154 156 133 127 115 104 113 104 90 101 121 112 100 80 61 58 52 23 13 12 9 12 20 32 35 26 25 22 24 55 66 66 67 62
211 195 165 158 158 157 154 147 141 137 135 131 128 127 122 120 120 118 118 117 118 119 118 119 116 116 116 119 125 126 122 123 124 129 133 133 131 129 129 123 120 131 146 151 156 167 174 156 150 138 118 129 143 123 119 108 97 101 104 109 122 113 95 82 66 45 42 46 39 28 4 358 19 28 34 47 27 24 29 22 40 60 64 69 69
206 207 185 170 165 165 164 157 150 144 142 139 135 135 132 133 132 128 129 127 126 126 119 113 111 109 109 116 130 132 130 134 137 143 142 138 138 138 135 131 131 140 144 143 143 152 162 154 150 135 120 125 134 121 116 115 106 105 118 130 121 106 103 97 75 52 43 39 40 44 6 359 17 14 14 45 24 18 32 44 56 61 62 68 71
206 206 199 183 173 171 170 168 160 152 150 148 145 144 142 144 144 141 141 138 136 135 123 113 109 108 109 119 132 137 140 144 148 153 151 148 148 147 145 139 137 142 141 140 148 156 157 152 145 133 124 129 131 122 112 120 115 111 123 127 103 102 119 125 98 77 78 54 37 43 34 11 8 4 11 34 27 21 34 54 65 59 55 62 74
211 206 204 192 181 177 176 175 171 163 158 156 155 154 154 157 159 158 155 150 149 146 134 126 124 122 125 136 141 147 156 160 160 161 159 158 159 158 152 142 138 145 146 140 148 159 158 149 143 135 123 121 122 115 114 127 119 114 118 110 104 98 99 105 90 84 87 33 16 32 45 20 344 3 16 24 28 30 42 53 52 50 53 58 75
216 210 206 200 190 183 180 181 180 175 168 165 165 167 167 170 171 169 166 160 158 157 147 138 138 141 144 157 162 164 171 174 170 171 172 170 171 168 157 148 149 153 152 148 153 162 158 152 153 151 134 123 117 106 119 140 133 125 115 98 101 82 79 90 76 84 84 41 36 49 47 29 355 12 31 37 36 38 46 49 43 44 45 47 58
Height
5890 5892 5893 5893 5894 5894 5894 5895 5895 5895 5896 5897 5898 5899 5899 5900 5901 5902 5902 5903 5904 5906 5907 5908 5909 5910 5911 5911 5911 5912 5911 5911 5912 5913 5913 5914 5914 5913 5912 5912 5911 5911 5911 5910 5910 5911 5911 5911 5911 5910 5910 5910 5910 5911 5911 5911 5911 5911 5912 5913 5913 5913 5913 5912 5912 5911 5911 5910 5910 5909 5909 5908 5907 5907 5906 5906 5905 5904 5903 5902 5901 5900 5899 5897 5897
5890 5892 5893 5894 5894 5894 5895 5896 5896 5896 5896 5897 5898 5899 5900 5901 5902 5902 5903 5905 5906 5907 5908 5909 5909 5910 5911 5911 5911 5911 5911 5912 5913 5913 5914 5914 5914 5913 5912 5912 5912 5912 5911 5911 5911 5911 5911 5911 5911 5911 5911 5911 5912 5912 5913 5912 5912 5912 5913 5913 5913 5913 5913 5913 5912 5912 5912 5911 5911 5910 5910 5909 5909 5908 5907 5907 5906 5905 5904 5903 5902 5901 5899 5897 5896
5891 5893 5894 5894 5895 5895 5896 5896 5897 5897 5897 5898 5900 5900 5901 5902 5903 5904 5905 5906 5907 5908 5909 5910 5910 5910 5910 5911 5911 5911 5912 5912 5913 5914 5915 5914 5914 5914 5913 5912 5912 5912 5912 5912 5911 5911 5912 5912 5912 5912 5912 5912 5913 5913 5914 5913 5913 5913 5914 5914 5914 5913 5913 5913 5913 5912 5912 5912 5912 5911 5911 5910 5910 5909 5908 5907 5907 5906 5905 5904 5902 5901 5899 5897 5896
5892 5894 5895 5895 5895 5896 5896 5897 5897 5898 5899 5900 5901 5901 5902 5903 5904 5905 5905 5906 5907 5908 5909 5910 5910 5910 5910 5911 5911 5912 5912 5913 5914 5915 5915 5915 5915 5914 5914 5913 5913 5913 5913 5912 5912 5912 5912 5912 5913 5913 5913 5914 5914 5914 5914 5914 5914 5914 5915 5915 5914 5914 5913 5913 5913 5913 5913 5913 5912 5912 5912 5911 5910 5910 5909 5908 5907 5906 5905 5904 5903 5901 5899 5897 5896
5894 5894 5895 5896 5896 5897 5897 5898 5898 5899 5900 5901 5901 5902 5903 5903 5904 5905 5906 5906 5907 5908 5909 5910 5910 5910 5911 5911 5911 5912 5913 5914 5915 5915 5915 5914 5914 5915 5914 5914 5914 5913 5913 5913 5912 5912 5913 5913 5913 5914 5914 5914 5915 5915 5915 5915 5915 5915 5916 5916 5915 5915 5914 5914 5913 5913 5914 5913 5913 5913 5912 5912 5911 5911 5910 5909 5908 5907 5906 5905 5903 5901 5900 5898 5897
5894 5895 5896 5896 5897 5898 5898 5898 5899 5900 5900 5901 5902 5903 5903 5904 5905 5905 5906 5907 5908 5908 5909 5910 5910 5911 5911 5911 5912 5913 5913 5914 5915 5915 5915 5914 5914 5915 5915 5915 5914 5914 5913 5913 5913 5913 5913 5914 5914 5914 5915 5915 5915 5915 5915 5916 5916 5916 5917 5917 5916 5915 5915 5914 5914 5914 5914 5914 5914 5913 5913 5912 5912 5911 5910 5909 5908 5908 5907 5905 5904 5902 5901 5899 5898
5895 5895 5896 5897 5898 5898 5899 5899 5900 5900 5901 5902 5903 5904 5904 5905 5906 5906 5907 5908 5908 5909 5909 5910 5910 5911 5911 5912 5912 5912 5913 5914 5915 5915 5915 5914 5914 5915 5915 5915 5915 5914 5914 5914 5914 5914 5914 5915 5915 5915 5915 5915 5916 5916 5916 5916 5917 5917 5918 5917 5917 5916 5915 5915 5914 5914 5915 5915 5914 5914 5913 5913 5912 5912 5911 5910 5909 5908 5907 5906 5904 5903 5901 5900 5899
5896 5896 5897 5898 5898 5899 5899 5900 5901 5902 5902 5903 5904 5904 5905 5906 5907 5907 5908 5909 5909 5909 5909 5910 5910 5911 5911 5912 5912 5912 5913 5914 5915 5915 5915 5915 5915 5915 5915 5915 5915 5915 5914 5914 5914 5915 5915 5916 5916 5916 5916 5916 5916 5916 5917 5917 5917 5918 5918 5918 5918 5917 5916 5916 5915 5915 5915 5915 5915 5914 5914 5913 5913 5912 5911 5910 5910 5909 5908 5906 5905 5903 5902 5901 5899
5897 5897 5898 5898 5899 5899 5900 5901 5902 5903 5904 5904 5905 5905 5906 5907 5907 5908 5908 5909 5909 5909 5910 5910 5910 5911 5912 5912 5912 5913 5914 5915 5915 5915 5915 5916 5916 5915 5915 5915 5915 5915 5915 5915 5915 5916 5916 5917 5918 5918 5917 5917 5917 5917 5918 5918 5918 5919 5919 5919 5918 5918 5917 5917 5916 5916 5916 5916 5916 5915 5915 5914 5914 5913 5912 5911 5910 5909 5908 5907 5905 5904 5902 5901 5900
5898 5899 5899 5899 5900 5900 5901 5902 5903 5904 5904 5905 5905 5906 5907 5907 5908 5908 5908 5909 5909 5910 5910 5910 5910 5911 5912 5913 5913 5913 5914 5915 5915 5915 5916 5916 5916 5915 5916 5916 5916 5915 5915 5915 5916 5916 5917 5918 5919 5919 5919 5919 5919 5919 5919 5919 5919 5919 5919 5919 5919 5918 5918 5918 5917 5917 5917 5917 5917 5916 5916 5915 5915 5914 5913 5912 5911 5910 5908 5907 5905 5904 5902 5902 5900
5899 5899 5900 5900 5900 5900 5901 5902 5903 5904 5904 5905 5905 5906 5907 5907 5908 5908 5909 5909 5910 5910 5910 5910 5910 5911 5912 5912 5912 5913 5914 5915 5915 5916 5916 5916 5916 5916 5916 5916 5916 5916 5916 5916 5916 5917 5918 5919 5919 5920 5920 5920 5920 5920 5920 5919 5919 5920 5920 5920 5920 5919 5919 5919 5918 5918 5918 5918 5917 5917 5916 5916 5915 5914 5913 5912 5911 5910 5908 5907 5905 5904 5902 5901 5900
5899 5899 5900 5900 5900 5901 5902 5902 5903 5904 5904 5905 5906 5906 5907 5907 5908 5909 5909 5909 5909 5910 5910 5910 5910 5911 5911 5912 5912 5913 5915 5915 5916 5916 5916 5916 5916 5916 5916 5916 5917 5916 5916 5917 5917 5917 5918 5919 5920 5920 5920 5920 5920 5921 5921 5920 5920 5920 5921 5920 5920 5920 5920 5919 5919 5919 5919 5919 5918 5917 5916 5916 5915 5915 5914 5912 5911 5910 5909 5907 5905 5904 5902 5901 5900
5899 5900 5900 5900 5900 5901 5902 5902 5903 5903 5904 5904 5905 5906 5907 5907 5908 5908 5908 5909 5909 5910 5910 5910 5911 5911 5911 5911 5912 5914 5915 5916 5916 5917 5917 5916 5917 5917 5917 5917 5917 5917 5916 5917 5917 5918 5918 5919 5920 5921 5921 5921 5921 5921 5922 5921 5921 5921 5921 5921 5921 5920 5920 5920 5920 5920 5920 5919 5918 5917 5917 5916 5915 5915 5914 5912 5911 5910 5909 5907 5905 5904 5902 5901 5899
5899 5899 5900 5900 5900 5901 5902 5902 5902 5903 5903 5904 5904 5905 5906 5907 5907 5908 5908 5908 5909 5910 5910 5911 5911 5911 5911 5912 5913 5914 5915 5916 5917 5917 5917 5917 5917 5917 5917 5917 5917 5917 5917 5917 5917 5918 5919 5920 5920 5921 5921 5921 5921 5922 5923 5923 5923 5923 5922 5922 5922 5921 5921 5921 5921 5921 5920 5919 5918 5918 5917 5917 5916 5915 5914 5913 5911 5910 5909 5907 5906 5904 5903 5901 5900
5898 5899 5899 5900 5900 5901 5901 5902 5902 5902 5903 5903 5904 5905 5905 5906 5907 5907 5908 5908 5909 5910 5910 5911 5911 5911 5911 5912 5913 5914 5915 5917 5918 5918 5918 5917 5917 5917 5917 5917 5917 5917 5917 5917 5917 5918 5919 5920 5921 5921 5921 5921 5922 5923 5924 5924 5924 5924 5923 5923 5923 5922 5922 5921 5921 5921 5920 5919 5919 5918 5918 5917 5916 5915 5914 5913 5912 5911 5909 5907 5906 5904 5903 5902 5900
5899 5899 5900 5900 5900 5901 5901 5902 5902 5902 5903 5903 5904 5904 5905 5906 5906 5907 5907 5908 5909 5909 5910 5910 5910 5911 5911 5912 5914 5915 5916 5918 5919 5919 5918 5917 5917 5917 5917 5917 5917 5917 5917 5917 5918 5918 5919 5920 5921 5921 5921 5922 5922 5924 5924 5925 5925 5925 5925 5924 5924 5923 5923 5922 5922 5922 5920 5920 5919 5919 5918 5918 5917 5916 5915 5914 5912 5911 5909 5908 5906 5904 5903 5902 5901
5900 5900 5900 5900 5900 5901 5901 5901 5902 5902 5903 5903 5904 5904 5905 5905 5906 5907 5907 5907 5908 5908 5909 5910 5911 5911 5911 5913 5914 5916 5917 5918 5919 5919 5918 5917 5917 5917 5918 5918 5918 5918 5917 5918 5918 5919 5920 5921 5921 5922 5922 5922 5923 5924 5925 5925 5925 5925 5925 5925 5924 5924 5924 5923 5923 5922 5921 5921 5920 5920 5919 5918 5917 5917 5916 5914 5913 5911 5909 5908 5906 5905 5904 5902 5901
5900 5900 5900 5900 5901 5900 5900 5900 5901 5901 5902 5903 5903 5904 5904 5905 5905 5906 5907 5907 5908 5908 5909 5910 5911 5912 5912 5913 5914 5916 5917 5919 5919 5919 5918 5918 5918 5918 5918 5918 5918 5918 5918 5918 5919 5919 5920 5921 5922 5923 5923 5924 5924 5925 5926 5926 5926 5926 5926 5925 5925 5925 5924 5924 5923 5923 5922 5922 5921 5920 5919 5919 5918 5917 5916 5914 5913 5911 5910 5908 5906 5905 5904 5903 5902
5901 5901 5901 5901 5901 5901 5900 5900 5900 5900 5901 5901 5902 5903 5903 5904 5905 5906 5906 5907 5907 5908 5909 5910 5911 5912 5912 5913 5914 5916 5917 5919 5919 5918 5918 5918 5918 5918 5918 5919 5918 5918 5918 5919 5919 5920 5921 5922 5923 5923 5924 5925 5925 5926 5926 5927 5927 5927 5926 5926 5925 5925 5925 5924 5924 5923 5923 5922 5922 5921 5920 5919 5918 5917 5916 5914 5913 5912 5910 5908 5907 5906 5904 5904 5903
5901 5901 5901 5901 5901 5901 5900 5900 5900 5900 5900 5900 5901 5902 5903 5903 5904 5905 5905 5906 5907 5908 5909 5910 5911 5911 5911 5913 5914 5916 5917 5918 5919 5918 5918 5918 5919 5919 5919 5919 5919 5919 5919 5920 5920 5921 5921 5922 5923 5924 5925 5926 5926 5927 5927 5927 5928 5927 5927 5926 5926 5926 5926 5925 5925 5924 5923 5922 5922 5921 5920 5919 5918 5917 5915 5914 5913 5912 5910 5909 5907 5906 5905 5904 5903
5900 5901 5901 5901 5901 5901 5900 5900 5900 5900 5900 5900 5901 5902 5902 5903 5903 5904 5905 5906 5907 5907 5908 5909 5910 5911 5912 5913 5914 5915 5917 5918 5919 5919 5919 5919 5919 5919 5919 5919 5920 5920 5920 5920 5921 5922 5922 5923 5924 5925 5926 5926 5927 5927 5928 5928 5929 5928 5928 5927 5927 5927 5926 5926 5925 5924 5923 5922 5922 5921 5920 5919 5918 5917 5916 5914 5913 5912 5910 5909 5908 5906 5905 5904 5903
5900 5900 5901 5901 5901 5900 5900 5900 5900 5900 5900 5900 5901 5901 5902 5902 5903 5904 5904 5905 5906 5907 5907 5908 5910 5911 5912 5913 5914 5915 5916 5917 5918 5919 5920 5920 5920 5920 5920 5920 5920 5920 5921 5921 5922 5922 5923 5923 5924 5925 5926 5927 5928 5928 5929 5929 5930 5929 5928 5928 5928 5928 5927 5927 5926 5925 5924 5923 5922 5921 5920 5919 5918 5917 5916 5914 5913 5912 5911 5909 5908 5907 5905 5904 5903
5900 5900 5900 5900 5900 5900 5900 5900 5900 5900 5900 5900 5901 5901 5902 5902 5902 5903 5904 5905 5906 5906 5907 5908 5909 5910 5911 5912 5913 5914 5915 5916 5917 5918 5919 5920 5920 5920 5920 5921 5921 5921 5921 5922 5923 5923 5924 5924 5925 5927 5928 5928 5929 5929 5929 5930 5930 5930 5929 5929 5929 5929 5928 5927 5927 5926 5925 5924 5923 5922 5921 5920 5919 5917 5916 5915 5913 5912 5911 5909 5908 5907 5906 5905 5903
5900 5900 5900 5900 5900 5900 5899 5899 5899 5899 5900 5900 5901 5902 5902 5902 5902 5903 5904 5904 5905 5906 5906 5907 5908 5909 5910 5911 5913 5914 5914 5915 5916 5917 5919 5920 5920 5921 5921 5922 5921 5922 5922 5923 5924 5924 5925 5925 5926 5928 5929 5929 5929 5930 5931 5931 5930 5930 5930 5930 5930 5930 5929 5928 5927 5926 5926 5925 5924 5923 5922 5920 5919 5918 5916 5915 5914 5913 5911 5910 5908 5907 5906 5905 5904
5900 5900 5899 5899 5900 5900 5899 5899 5899 5898 5899 5900 5901 5902 5902 5902 5902 5902 5903 5903 5904 5905 5906 5907 5908 5909 5910 5911 5912 5913 5914 5915 5916 5916 5918 5920 5921 5921 5922 5922 5922 5922 5923 5924 5925 5926 5926 5927 5927 5929 5930 5930 5930 5930 5931 5931 5931 5931 5931 5931 5931 5930 5930 5929 5928 5927 5927 5926 5924 5923 5922 5921 5919 5918 5917 5916 5915 5913 5912 5910 5909 5908 5907 5906 5904
5900 5900 5899 5898 5899 5899 5899 5899 5898 5898 5898 5899 5900 5901 5901 5901 5901 5902 5902 5903 5904 5905 5906 5907 5908 5909 5910 5911 5912 5913 5914 5916 5916 5915 5917 5920 5921 5922 5922 5923 5923 5923 5924 5924 5926 5927 5927 5928 5929 5930 5931 5931 5931 5931 5932 5932 5932 5932 5932 5932 5932 5931 5930 5929 5929 5928 5927 5926 5925 5924 5923 5921 5919 5918 5917 5917 5916 5914 5913 5911 5910 5909 5908 5906 5905
5900 5900 5899 5898 5898 5898 5898 5898 5898 5898 5898 5899 5900 5901 5901 5901 5901 5901 5902 5903 5904 5904 5906 5907 5908 5908 5909 5911 5912 5913 5914 5915 5915 5915 5918 5920 5921 5922 5923 5923 5924 5924 5924 5925 5927 5928 5929 5929 5930 5931 5932 5932 5933 5933 5933 5933 5933 5933 5933 5933 5932 5931 5930 5930 5929 5928 5927 5926 5925 5924 5923 5922 5920 5919 5917 5917 5916 5915 5913 5912 5911 5909 5908 5907 5906
5900 5900 5899 5898 5897 5897 5897 5897 5897 5897 5897 5898 5899 5901 5901 5901 5901 5901 5902 5903 5903 5904 5905 5906 5907 5908 5909 5910 5911 5912 5913 5913 5914 5916 5919 5921 5922 5922 5923 5924 5924 5925 5925 5926 5927 5928 5930 5931 5931 5932 5933 5934 5934 5934 5934 5934 5934 5934 5934 5933 5933 5932 5931 5930 5929 5928 5927 5926 5925 5925 5924 5922 5921 5919 5918 5917 5917 5916 5914 5912 5911 5910 5909 5907 5906
5900 5899 5899 5899 5897 5897 5897 5896 5896 5896 5896 5897 5898 5899 5900 5900 5900 5901 5902 5902 5903 5905 5905 5905 5906 5907 5908 5909 5910 5911 5911 5912 5914 5917 5920 5921 5922 5922 5924 5925 5925 5926 5926 5926 5927 5929 5930 5932 5933 5933 5934 5934 5934 5935 5935 5935 5935 5935 5935 5934 5933 5932 5931 5931 5929 5928 5927 5927 5926 5925 5924 5923 5922 5920 5919 5918 5917 5916 5915 5913 5912 5911 5909 5908 5907
5900 5900 5900 5899 5899 5898 5897 5897 5896 5895 5896 5896 5897 5898 5899 5900 5900 5901 5902 5902 5903 5904 5904 5905 5906 5907 5908 5908 5909 5910 5911 5913 5916 5918 5920 5921 5922 5923 5924 5926 5926 5927 5927 5927 5927 5928 5930 5932 5933 5934 5934 5933 5934 5936 5936 5935 5935 5935 5935 5934 5933 5932 5932 5931 5929 5928 5928 5927 5927 5926 5925 5923 5922 5921 5920 5918 5917 5916 5915 5914 5912 5911 5910 5909 5908
5900 5901 5900 5899 5899 5898 5898 5897 5897 5896 5896 5896 5897 5897 5898 5899 5900 5900 5901 5902 5903 5903 5904 5905 5906 5907 5908 5908 5909 5911 5912 5914 5916 5919 5920 5921 5922 5924 5925 5927 5927 5927 5927 5927 5927 5928 5930 5932 5934 5935 5934 5934 5934 5935 5936 5936 5936 5935 5935 5934 5933 5933 5932 5930 5929 5928 5928 5927 5926 5926 5925 5923 5922 5921 5920 5919 5918 5917 5916 5914 5913 5912 5911 5910 5908
5900 5900 5900 5899 5899 5898 5897 5897 5897 5897 5896 5896 5897 5897 5897 5898 5899 5900 5901 5902 5903 5903 5904 5905 5906 5907 5908 5909 5911 5912 5913 5915 5917 5920 5921 5922 5923 5925 5926 5927 5928 5928 5928 5928 5928 5928 5929 5931 5934 5935 5935 5935 5935 5935 5935 5935 5935 5935 5935 5934 5934 5933 5932 5931 5930 5929 5928 5927 5926 5926 5925 5924 5922 5921 5921 5920 5918 5917 5916 5915 5914 5912 5911 5910 5909
5901 5901 5900 5900 5899 5898 5897 5897 5897 5897 5897 5897 5897 5897 5897 5898 5899 5900 5901 5902 5903 5904 5904 5905 5906 5907 5908 5910 5911 5912 5914 5915 5917 5920 5922 5923 5924 5926 5927 5928 5928 5928 5928 5928 5928 5928 5929 5930 5932 5935 5936 5936 5936 5936 5936 5935 5935 5935 5935 5935 5934 5933 5932 5931 5930 5930 5929 5928 5927 5927 5926 5924 5923 5922 5921 5920 5919 5918 5917 5915 5914 5913 5912 5911 5909
5901 5901 5900 5900 5899 5898 5897 5897 5897 5897 5897 5897 5897 5897 5898 5898 5899 5900 5901 5902 5903 5904 5905 5906 5906 5908 5909 5911 5913 5913 5914 5915 5918 5921 5923 5924 5925 5927 5928 5929 5929 5929 5929 5929 5929 5928 5929 5930 5931 5933 5935 5936 5937 5937 5937 5937 5937 5936 5936 5935 5935 5934 5932 5931 5931 5931 5930 5929 5928 5927 5926 5925 5924 5923 5922 5921 5920 5918 5917 5916 5915 5913 5913 5912 5910
5901 5901 5900 5900 5899 5898 5897 5896 5897 5897 5897 5897 5898 5898 5899 5899 5900 5900 5902 5903 5904 5904 5905 5906 5907 5909 5910 5912 5914 5914 5915 5916 5919 5922 5924 5925 5926 5928 5928 5929 5929 5930 5930 5930 5930 5929 5929 5929 5930 5931 5933 5934 5936 5937 5938 5938 5938 5937 5936 5936 5936 5935 5933 5932 5932 5932 5930 5930 5929 5927 5926 5925 5924 5923 5922 5921 5920 5919 5918 5917 5915 5914 5913 5912 5911
5901 5901 5901 5900 5899 5898 5897 5897 5897 5897 5897 5897 5898 5899 5899 5900 5901 5901 5902 5903 5904 5905 5906 5907 5908 5910 5912 5913 5914 5915 5916 5918 5921 5923 5925 5926 5927 5928 5929 5930 5930 5930 5931 5931 5930 5930 5929 5929 5930 5931 5931 5933 5935 5936 5938 5938 5938 5937 5937 5937 5936 5935 5933 5933 5933 5933 5931 5930 5929 5927 5926 5925 5924 5923 5922 5921 5920 5920 5919 5918 5916 5915 5914 5912 5912
5901 5901 5901 5900 5900 5899 5898 5898 5898 5898 5897 5898 5898 5899 5900 5901 5902 5902 5903 5904 5905 5905 5906 5907 5909 5911 5912 5914 5915 5917 5918 5919 5922 5924 5925 5926 5927 5928 5929 5930 5930 5931 5931 5932 5931 5931 5930 5930 5930 5931 5932 5933 5934 5936 5937 5938 5937 5937 5937 5937 5936 5935 5933 5933 5934 5933 5932 5930 5928 5927 5926 5924 5924 5923 5922 5921 5921 5921 5920 5919 5918 5916 5915 5913 5912
5901 5901 5901 5901 5900 5900 5899 5899 5899 5899 5899 5899 5899 5900 5901 5902 5903 5903 5903 5904 5905 5906 5907 5908 5910 5912 5913 5915 5917 5918 5919 5921 5924 5925 5926 5927 5927 5928 5929 5930 5931 5931 5932 5932 5932 5932 5931 5931 5931 5932 5933 5934 5935 5936 5936 5937 5937 5937 5937 5936 5935 5934 5933 5933 5933 5933 5932 5930 5928 5927 5925 5924 5923 5922 5921 5921 5921 5921 5920 5919 5918 5917 5916 5914 5913
5901 5901 5902 5901 5901 5901 5900 5900 5899 5900 5900 5900 5900 5901 5902 5902 5903 5904 5904 5905 5906 5907 5908 5910 5912 5913 5915 5916 5918 5919 5921 5923 5925 5926 5927 5927 5928 5928 5929 5930 5931 5932 5932 5933 5932 5933 5932 5932 5932 5933 5934 5935 5936 5936 5936 5936 5937 5937 5936 5936 5935 5934 5932 5932 5932 5932 5931 5929 5928 5926 5925 5924 5923 5922 5922 5921 5921 5921 5921 5920 5919 5918 5917 5915 5914
5901 5902 5902 5902 5901 5901 5902 5901 5901 5901 5901 5902 5901 5902 5902 5903 5904 5905 5906 5907 5908 5909 5910 5911 5913 5914 5915 5917 5919 5921 5923 5925 5926 5926 5927 5927 5928 5929 5929 5930 5931 5932 5932 5933 5933 5933 5933 5933 5933 5934 5934 5935 5936 5936 5936 5936 5936 5936 5936 5935 5934 5933 5932 5932 5931 5931 5930 5929 5927 5926 5925 5924 5924 5922 5922 5922 5921 5922 5921 5920 5919 5918 5917 5916 5915
5902 5903 5903 5903 5902 5902 5903 5903 5903 5902 5903 5903 5903 5903 5904 5905 5906 5907 5908 5909 5910 5911 5912 5913 5914 5916 5917 5919 5921 5923 5925 5926 5926 5926 5926 5927 5928 5929 5930 5930 5931 5932 5932 5933 5933 5933 5933 5933 5934 5934 5934 5935 5936 5936 5936 5936 5936 5936 5935 5935 5934 5932 5931 5932 5932 5930 5929 5928 5927 5926 5925 5925 5924 5923 5922 5922 5922 5922 5922 5921 5920 5918 5918 5917 5916
5902 5903 5904 5904 5903 5904 5904 5904 5904 5904 5905 5905 5905 5905 5906 5906 5907 5908 5910 5911 5912 5913 5914 5915 5917 5918 5920 5921 5923 5924 5925 5926 5926 5926 5927 5927 5928 5929 5930 5930 5931 5931 5932 5932 5933 5933 5933 5934 5934 5934 5934 5935 5935 5936 5935 5935 5936 5935 5935 5935 5934 5932 5932 5932 5932 5930 5929 5928 5927 5927 5926 5925 5924 5924 5923 5923 5922 5922 5922 5922 5920 5919 5918 5918 5918
5903 5903 5904 5905 5904 5904 5905 5905 5906 5906 5906 5907 5908 5908 5908 5909 5909 5910 5911 5913 5914 5915 5916 5917 5919 5921 5922 5923 5924 5924 5925 5925 5926 5926 5927 5928 5928 5929 5930 5930 5931 5931 5932 5932 5932 5933 5933 5933 5934 5934 5934 5934 5935 5935 5935 5935 5936 5935 5935 5935 5935 5934 5934 5934 5933 5931 5929 5929 5928 5928 5928 5926 5925 5925 5924 5924 5923 5923 5922 5921 5920 5920 5919 5919 5919
5904 5904 5904 5905 5905 5905 5906 5906 5907 5907 5908 5909 5910 5910 5910 5911 5911 5912 5913 5914 5915 5916 5917 5919 5920 5922 5922 5923 5923 5924 5925 5925 5926 5926 5927 5928 5929 5929 5930 5930 5931 5931 5932 5932 5933 5933 5933 5933 5933 5933 5934 5934 5935 5935 5935 5936 5936 5935 5935 5936 5936 5936 5936 5935 5934 5932 5931 5930 5930 5929 5928 5927 5926 5925 5924 5924 5924 5924 5923 5921 5920 5920 5920 5920 5920
5904 5904 5905 5906 5906 5906 5906 5907 5907 5908 5909 5909 5910 5911 5911 5912 5913 5913 5914 5915 5915 5916 5918 5920 5921 5921 5922 5922 5923 5924 5925 5925 5926 5927 5927 5928 5929 5929 5930 5930 5931 5932 5932 5933 5933 5933 5933 5933 5934 5934 5934 5934 5935 5935 5935 5936 5936 5936 5936 5937 5937 5937 5937 5936 5934 5932 5931 5930 5931 5930 5928 5927 5926 5925 5925 5925 5925 5924 5923 5922 5921 5920 5920 5921 5921
5904 5905 5905 5906 5907 5908 5908 5908 5908 5909 5910 5910 5911 5912 5912 5913 5913 5914 5915 5915 5916 5918 5919 5920 5921 5921 5922 5923 5924 5924 5925 5926 5926 5927 5928 5928 5929 5930 5931 5931 5931 5932 5933 5933 5933 5933 5933 5934 5934 5934 5934 5934 5934 5934 5935 5936 5936 5937 5937 5937 5937 5937 5936 5936 5934 5933 5931 5930 5931 5931 5930 5928 5927 5926 5926 5925 5925 5924 5923 5923 5922 5921 5921 5922 5922
5904 5905 5905 5906 5907 5908 5909 5909 5909 5910 5911 5912 5912 5913 5914 5915 5915 5915 5916 5917 5918 5919 5920 5920 5921 5922 5923 5923 5924 5925 5926 5926 5927 5927 5928 5929 5930 5930 5931 5931 5932 5932 5933 5933 5933 5933 5933 5934 5934 5934 5934 5934 5934 5934 5935 5936 5936 5937 5937 5937 5937 5937 5937 5936 5935 5934 5933 5932 5931 5931 5931 5930 5928 5927 5927 5926 5925 5925 5923 5923 5923 5922 5922 5923 5922
5904 5905 5906 5906 5907 5909 5909 5910 5910 5910 5912 5913 5914 5915 5916 5916 5917 5917 5918 5918 5919 5920 5920 5921 5922 5923 5924 5924 5925 5926 5926 5927 5927 5928 5929 5929 5930 5931 5931 5932 5932 5933 5933 5933 5933 5934 5934 5934 5934 5934 5934 5934 5934 5934 5935 5936 5936 5937 5937 5937 5937 5937 5937 5936 5936 5935 5935 5933 5932 5931 5932 5931 5929 5929 5928 5927 5926 5925 5923 5923 5923 5923 5923 5923 5923
5903 5905 5906 5906 5907 5908 5910 5910 5911 5911 5912 5913 5914 5915 5916 5917 5918 5918 5919 5919 5920 5920 5921 5922 5923 5924 5925 5925 5926 5926 5926 5927 5928 5928 5929 5930 5930 5931 5931 5932 5932 5933 5933 5933 5933 5933 5934 5934 5934 5934 5934 5934 5934 5934 5935 5935 5936 5937 5937 5937 5937 5937 5936 5936 5936 5935 5934 5934 5933 5932 5931 5932 5932 5931 5930 5928 5927 5925 5923 5923 5923 5923 5924 5924 5924
5902 5904 5905 5906 5907 5908 5909 5911 5912 5912 5913 5914 5914 5915 5916 5917 5918 5919 5919 5920 5921 5921 5922 5923 5924 5924 5925 5926 5926 5927 5927 5927 5928 5928 5929 5930 5930 5931 5931 5932 5932 5933 5933 5933 5933 5933 5933 5934 5933 5934 5934 5934 5934 5935 5935 5935 5936 5937 5936 5936 5936 5936 5936 5936 5936 5936 5935 5935 5934 5933 5933 5933 5934 5932 5930 5929 5927 5925 5924 5924 5924 5924 5925 5925 5925
5902 5903 5905 5906 5907 5908 5909 5910 5912 5913 5913 5914 5915 5916 5916 5917 5918 5919 5920 5921 5921 5922 5923 5923 5924 5925 5926 5926 5927 5927 5927 5928 5928 5929 5929 5930 5930 5931 5931 5932 5933 5933 5933 5933 5933 5933 5933 5933 5934 5934 5934 5934 5935 5935 5935 5935 5935 5936 5936 5936 5936 5935 5936 5936 5936 5936 5936 5936 5935 5934 5934 5934 5934 5932 5930 5928 5927 5925 5925 5925 5925 5925 5926 5926 5926